Date_and_time,latitude,longitude,wind_speed,RelWindDirFrom,WindDirFrom,air_pressure,air_temperature,relative_humidity,Temp,platform_speed_wrt_ground,air_pressure_at_mean_sea_level,platform_orientation
2019-08-08 00:00,50.6268683333333,-96.649765,27.1,31.6,315,980.76,21.0,43,22.98,10.7,1006.43,2.2
2019-08-08 00:10,50.6518883333333,-96.6426383333333,26.6,31.4,315,980.82,21.0,43,23.04,9.2,1006.51,2.2
2019-08-08 00:20,50.6764116666667,-96.6381033333333,25.7,30.7,323,980.33,20.8,45,22.86,8.9,1006.01,2.2
2019-08-08 00:30,50.6793116666667,-96.6364783333333,19.5,24.9,312,981.03,20.6,46,22.71,1.1,1006.73,2.2
2019-08-08 00:40,50.6792783333333,-96.6363566666667,20.2,23.5,314,980.93,20.5,46,22.68,0.0,1006.62,2.2
2019-08-08 00:50,50.6790783333333,-96.6362666666667,22.9,28.2,313,980.72,20.5,44,22.66,0.1,1006.41,2.2
2019-08-08 01:00,50.6795816666667,-96.6357633333333,21.0,27.2,314,980.95,20.6,44,22.64,0.2,1006.63,358.3
2019-08-08 01:10,50.685165,-96.5938083333333,16.6,22.3,346,981.81,20.5,46,22.66,9.8,1007.51,358.3
2019-08-08 01:20,50.6919083333333,-96.5611016666667,17.5,22.8,336,981.66,20.4,46,22.73,7.8,1007.36,358.3
2019-08-08 01:30,50.694815,-96.562105,20.2,24.6,319,980.90,20.4,46,22.64,1.1,1006.58,358.3
2019-08-08 01:40,50.6948666666667,-96.56221,19.2,23.9,312,981.55,20.1,47,22.65,0.0,1007.27,358.3
2019-08-08 01:50,50.6948683333333,-96.5622183333333,19.7,23.9,309,981.76,20.1,47,22.65,0.0,1007.49,358.3
2019-08-08 02:00,50.6948633333333,-96.562235,19.2,21.8,309,981.82,20.0,46,22.65,0.0,1007.56,24.5
2019-08-08 02:10,50.6948616666667,-96.562225,17.8,21.5,310,981.89,19.9,49,22.64,0.0,1007.64,24.5
2019-08-08 02:20,50.694855,-96.5622066666667,18.8,23.3,311,981.98,19.9,49,22.62,0.0,1007.75,24.5
2019-08-08 02:30,50.6948716666667,-96.562225,18.5,22.3,306,982.07,19.8,48,22.60,0.0,1007.85,24.5
2019-08-08 02:40,50.6948733333333,-96.5622133333333,17.7,22.6,315,982.09,19.7,49,22.56,0.0,1007.87,24.5
2019-08-08 02:50,50.694875,-96.5622183333333,20.4,24.1,306,982.20,19.6,48,22.56,0.0,1007.99,24.5
2019-08-08 03:00,50.694865,-96.5622216666667,22.0,25.9,306,982.25,19.4,48,22.54,0.0,1008.04,39.2
2019-08-08 03:10,50.6948633333333,-96.5622166666667,21.3,24.6,302,982.26,19.4,49,22.52,0.0,1008.07,39.2
2019-08-08 03:20,50.6948616666667,-96.5622,22.0,26.7,300,982.32,19.3,50,22.51,0.0,1008.13,39.2
2019-08-08 03:30,50.6948566666667,-96.5622166666667,21.7,26.3,300,982.36,19.3,51,22.50,0.0,1008.18,39.2
2019-08-08 03:40,50.6948633333333,-96.562225,22.6,27.1,303,982.34,19.2,51,22.48,0.0,1008.17,39.2
2019-08-08 03:50,50.6948566666667,-96.5622133333333,22.1,26.4,307,982.37,19.1,51,22.47,0.0,1008.21,39.2
2019-08-08 04:00,50.69486,-96.5622116666667,21.6,26.7,303,982.43,19.0,53,22.44,0.0,1008.28,71.8
2019-08-08 04:10,50.6948666666667,-96.56221,22.9,28.2,306,982.46,18.9,52,22.39,0.0,1008.31,71.8
2019-08-08 04:20,50.6948516666667,-96.5622316666667,21.9,25.5,300,982.53,18.8,53,22.36,0.0,1008.40,71.8
2019-08-08 04:30,50.69487,-96.56223,22.6,26.6,301,982.65,18.7,53,22.32,0.0,1008.53,71.8
2019-08-08 04:40,50.69487,-96.562215,23.1,27.0,300,982.76,18.7,54,22.28,0.0,1008.64,71.8
2019-08-08 04:50,50.69486,-96.562215,22.8,27.8,297,982.79,18.6,55,22.23,0.0,1008.68,71.8
2019-08-08 05:00,50.6948616666667,-96.5622166666667,21.8,26.4,300,982.83,18.6,56,22.20,0.0,1008.73,90.0
2019-08-08 05:10,50.69486,-96.5622116666667,22.8,28.5,299,982.83,18.4,57,22.18,0.0,1008.74,90.0
2019-08-08 05:20,50.6948566666667,-96.56222,21.6,25.6,297,982.77,18.4,58,22.15,0.0,1008.68,90.0
2019-08-08 05:30,50.694845,-96.5622216666667,21.7,26.4,298,982.77,18.4,57,22.12,0.0,1008.68,90.0
2019-08-08 05:40,50.6948533333333,-96.562215,21.4,25.5,298,982.76,18.2,58,22.10,0.0,1008.69,90.0
2019-08-08 05:50,50.6948633333333,-96.5622116666667,22.1,26.6,297,982.73,18.1,59,22.09,0.0,1008.66,90.0
2019-08-08 06:00,50.69484,-96.5621916666667,22.1,26.4,298,982.74,18.1,60,22.07,0.0,1008.68,360.0
2019-08-08 06:10,50.69486,-96.56221,23.7,29.1,300,982.70,18.1,58,22.06,0.0,1008.64,360.0
2019-08-08 06:20,50.6948633333333,-96.56222,22.8,27.1,298,982.74,18.2,58,22.06,0.0,1008.68,360.0
2019-08-08 06:30,50.6948633333333,-96.5621966666667,22.9,27.7,301,982.73,18.1,59,22.06,0.0,1008.68,360.0
2019-08-08 06:40,50.694855,-96.5621983333333,23.5,28.3,298,982.73,18.0,60,22.04,0.0,1008.68,360.0
2019-08-08 06:50,50.69485,-96.5622116666667,23.6,27.4,301,982.68,17.9,60,22.01,0.0,1008.64,360.0
2019-08-08 07:00,50.6948583333333,-96.5622,22.9,27.4,299,982.66,17.9,60,21.99,0.0,1008.63,90.0
2019-08-08 07:10,50.6948683333333,-96.56222,22.9,28.4,303,982.59,18.0,61,21.97,0.0,1008.55,90.0
2019-08-08 07:20,50.6948666666667,-96.56222,23.5,28.8,301,982.61,18.0,60,21.96,0.0,1008.57,90.0
2019-08-08 07:30,50.6948566666667,-96.5622066666667,24.5,29.6,298,982.56,17.9,60,21.95,0.0,1008.54,90.0
2019-08-08 07:40,50.6948683333333,-96.5622233333333,23.3,27.7,299,982.52,17.9,61,21.92,0.0,1008.50,90.0
2019-08-08 07:50,50.6948483333333,-96.562205,22.7,26.7,296,982.56,17.8,60,21.92,0.0,1008.55,90.0
2019-08-08 08:00,50.694845,-96.5622233333333,23.5,30.1,295,982.56,17.9,61,21.88,0.0,1008.54,360.0
2019-08-08 08:10,50.6948466666667,-96.56222,23.9,28.3,294,982.57,17.8,62,21.85,0.0,1008.56,360.0
2019-08-08 08:20,50.6948783333333,-96.5622216666667,22.6,28.6,292,982.54,17.8,63,21.86,0.0,1008.53,360.0
2019-08-08 08:30,50.6948683333333,-96.562215,24.7,29.0,295,982.56,17.7,61,21.86,0.0,1008.56,360.0
2019-08-08 08:40,50.6948733333333,-96.56221,24.2,28.3,293,982.57,17.6,62,21.86,0.0,1008.58,360.0
2019-08-08 08:50,50.6948633333333,-96.562215,23.4,30.1,292,982.58,17.6,64,21.81,0.0,1008.59,360.0
2019-08-08 09:00,50.69486,-96.562205,23.7,29.8,292,982.60,17.6,64,21.82,0.0,1008.61,360.0
2019-08-08 09:10,50.6948516666667,-96.5622166666667,22.8,29.0,290,982.59,17.5,65,21.79,0.0,1008.60,360.0
2019-08-08 09:20,50.6948633333333,-96.5622216666667,24.6,30.3,291,982.54,17.3,63,21.76,0.0,1008.55,360.0
2019-08-08 09:30,50.694855,-96.5622166666667,23.3,28.9,292,982.54,17.2,66,21.73,0.0,1008.55,360.0
2019-08-08 09:40,50.69486,-96.562215,24.5,30.7,293,982.63,17.2,65,21.69,0.0,1008.66,360.0
2019-08-08 09:50,50.69486,-96.5622033333333,24.3,30.0,294,982.68,17.2,66,21.67,0.0,1008.70,360.0
2019-08-08 10:00,50.6948583333333,-96.562215,24.1,29.8,297,982.65,17.3,67,21.67,0.0,1008.67,270.0
2019-08-08 10:10,50.69485,-96.562205,24.6,28.5,293,982.70,17.2,67,21.65,0.0,1008.73,270.0
2019-08-08 10:20,50.6948716666667,-96.5622333333333,24.5,29.3,297,982.80,17.1,67,21.65,0.0,1008.84,270.0
2019-08-08 10:30,50.6948666666667,-96.56222,25.2,30.5,298,982.80,17.1,67,21.63,0.0,1008.85,270.0
2019-08-08 10:40,50.6948583333333,-96.562205,24.0,29.1,297,982.80,17.0,68,21.62,0.0,1008.85,270.0
2019-08-08 10:50,50.6948583333333,-96.5622216666667,24.5,31.3,301,982.84,17.0,69,21.58,0.0,1008.89,270.0
2019-08-08 11:00,50.6948633333333,-96.5622266666667,24.7,29.7,302,982.84,16.8,69,21.55,0.0,1008.91,360.0
2019-08-08 11:10,50.6948633333333,-96.5622033333333,23.9,29.4,304,982.88,16.8,71,21.52,0.0,1008.96,360.0
2019-08-08 11:20,50.69486,-96.5622133333333,24.6,27.8,300,982.92,16.7,71,21.49,0.0,1009.00,360.0
2019-08-08 11:30,50.6948633333333,-96.56222,24.9,28.6,299,982.88,16.6,71,21.44,0.0,1008.96,360.0
2019-08-08 11:40,50.69485,-96.56222,25.0,29.7,302,982.86,16.6,72,21.38,0.0,1008.95,360.0
2019-08-08 11:50,50.69486,-96.5622133333333,24.3,29.3,303,982.86,16.7,72,21.35,0.0,1008.95,360.0
2019-08-08 12:00,50.6914633333333,-96.56425,23.6,30.5,305,982.71,16.9,73,21.31,1.3,1008.78,201.0
2019-08-08 12:10,50.705415,-96.5930533333333,31.9,38.0,307,980.97,16.7,72,21.67,8.3,1007.01,201.0
2019-08-08 12:20,50.7323883333333,-96.603915,30.7,36.2,311,981.11,16.5,74,21.84,10.0,1007.17,201.0
2019-08-08 12:30,50.7594966666667,-96.6169383333333,31.6,35.3,311,981.02,16.3,74,21.87,10.2,1007.08,201.0
2019-08-08 12:40,50.7808116666667,-96.6126466666667,27.1,35.6,313,981.73,16.3,74,21.87,7.7,1007.81,201.0
2019-08-08 12:50,50.789125,-96.5668966666667,17.9,23.5,327,983.25,16.3,75,21.85,10.8,1009.37,201.0
2019-08-08 13:00,50.796445,-96.5209183333333,18.0,22.5,332,983.27,16.4,75,21.83,10.8,1009.40,14.4
2019-08-08 13:10,50.784765,-96.4990683333333,16.8,24.3,308,983.10,18.4,67,21.82,6.5,1009.13,14.4
2019-08-08 13:20,50.7789933333333,-96.490145,20.5,26.7,305,983.05,17.7,72,21.78,2.9,1009.12,14.4
2019-08-08 13:30,50.773125,-96.4809666666667,18.6,24.0,306,983.10,17.9,71,21.77,3.0,1009.16,14.4
2019-08-08 13:40,50.767305,-96.4716,17.9,23.6,304,983.16,17.8,72,21.78,3.0,1009.22,14.4
2019-08-08 13:50,50.75786,-96.448735,16.3,26.0,312,983.08,17.7,71,21.78,6.2,1009.13,14.4
2019-08-08 14:00,50.757855,-96.448745,21.5,26.0,309,982.47,17.0,75,21.83,0.0,1008.55,48.7
2019-08-08 14:10,50.7578633333333,-96.448705,21.7,25.7,311,982.46,16.9,74,21.83,0.0,1008.55,48.7
2019-08-08 14:20,50.7578416666667,-96.4487033333333,20.6,25.3,311,982.57,17.0,73,21.83,0.0,1008.68,48.7
2019-08-08 14:30,50.75783,-96.4487483333333,20.5,24.5,309,982.69,17.0,73,21.84,0.0,1008.79,48.7
2019-08-08 14:40,50.7578416666667,-96.448755,19.5,24.0,306,982.80,17.2,73,21.84,0.0,1008.90,48.7
2019-08-08 14:50,50.7578616666667,-96.4487083333333,20.2,24.7,302,982.69,17.3,72,21.84,0.0,1008.78,48.7
2019-08-08 15:00,50.7578316666667,-96.448725,20.4,25.4,306,982.72,17.4,70,21.84,0.0,1008.71,47.7
2019-08-08 15:10,50.7558666666667,-96.453535,21.8,26.9,308,982.78,17.5,69,21.85,1.3,1008.80,47.7
2019-08-08 15:20,50.7349566666667,-96.464185,20.3,32.2,287,983.18,18.2,66,21.89,7.9,1009.17,47.7
2019-08-08 15:30,50.7093733333333,-96.43828,10.7,14.9,286,983.85,20.5,58,21.70,10.9,1009.77,47.7
2019-08-08 15:40,50.6840766666667,-96.412365,9.7,13.7,283,983.91,20.8,58,21.57,10.9,1009.81,47.7
2019-08-08 15:50,50.6589,-96.3882733333333,12.3,17.7,277,983.89,19.9,61,21.18,10.6,1009.87,47.7
2019-08-08 16:00,50.649945,-96.3792583333333,16.8,24.0,301,983.60,20.6,56,21.29,3.8,1009.54,148.5
2019-08-08 16:10,50.6499616666667,-96.3792233333333,20.2,24.1,305,983.17,18.3,63,21.47,0.0,1009.20,148.5
2019-08-08 16:20,50.6499316666667,-96.3792,19.9,23.8,299,983.46,18.0,64,21.50,0.0,1009.51,148.5
2019-08-08 16:30,50.6535966666667,-96.38237,20.2,25.1,303,983.54,18.1,64,21.52,1.5,1009.58,148.5
2019-08-08 16:40,50.6590583333333,-96.38787,21.5,25.9,298,983.50,18.1,63,21.43,2.3,1009.53,148.5
2019-08-08 16:50,50.664195,-96.3931216666667,20.9,25.1,301,983.55,18.2,61,21.23,2.2,1009.57,148.5
2019-08-08 17:00,50.6697383333333,-96.3982033333333,19.7,23.2,299,983.67,18.4,62,21.19,2.3,1009.69,160.0
2019-08-08 17:10,50.6925216666667,-96.41947,27.0,32.1,314,982.94,18.4,60,21.13,9.5,1008.90,160.0
2019-08-08 17:20,50.7181766666667,-96.44488,28.3,32.4,319,982.64,18.7,59,21.31,10.9,1008.47,160.0
2019-08-08 17:30,50.7431983333333,-96.4716866666667,27.7,32.1,320,982.69,18.7,58,21.52,10.9,1008.52,160.0
2019-08-08 17:40,50.7718566666667,-96.465455,24.8,32.5,333,982.87,18.7,57,21.75,10.4,1008.74,160.0
2019-08-08 17:50,50.80096,-96.4541433333333,21.7,25.5,327,983.62,18.7,58,21.79,10.8,1009.48,160.0
2019-08-08 18:00,50.8299516666667,-96.4427633333333,23.7,29.9,328,983.35,19.0,56,21.86,10.8,1009.30,3.0
2019-08-08 18:10,50.8468383333333,-96.43439,21.3,27.7,328,983.40,19.2,54,21.74,6.4,1009.35,3.0
2019-08-08 18:20,50.8535733333333,-96.4310333333333,20.1,26.1,321,983.50,19.1,55,21.71,2.5,1009.46,3.0
2019-08-08 18:30,50.860345,-96.4286866666667,20.1,26.5,322,983.58,19.0,57,21.73,2.5,1009.53,3.0
2019-08-08 18:40,50.867375,-96.4266783333333,19.9,25.9,324,983.67,19.0,58,21.76,2.6,1009.63,3.0
2019-08-08 18:50,50.8779516666667,-96.4250083333333,19.7,25.0,326,983.66,18.9,58,21.81,3.8,1009.61,3.0
2019-08-08 19:00,50.87774,-96.42551,21.3,27.5,321,983.78,19.4,54,21.83,0.1,1009.71,352.7
2019-08-08 19:10,50.8777233333333,-96.42548,20.2,25.1,321,983.78,19.5,51,21.84,0.0,1009.70,352.7
2019-08-08 19:20,50.87781,-96.4254716666667,20.8,26.3,322,983.68,19.5,52,21.84,0.0,1009.59,352.7
2019-08-08 19:30,50.8622133333333,-96.4566483333333,24.7,30.0,315,983.81,20.0,50,21.84,9.0,1009.71,352.7
2019-08-08 19:40,50.8440466666667,-96.4948233333333,22.8,27.3,310,984.06,20.1,51,21.81,10.9,1009.95,352.7
2019-08-08 19:50,50.8263633333333,-96.5337666666667,21.3,28.2,311,984.22,20.0,53,21.83,10.9,1010.11,352.7
2019-08-08 20:00,50.80739,-96.57203,18.4,22.7,309,984.47,20.0,52,21.79,11.1,1010.36,321.4
2019-08-08 20:10,50.788515,-96.6104733333333,18.1,22.4,297,984.55,20.1,51,21.84,11.1,1010.44,321.4
2019-08-08 20:20,50.7705866666667,-96.6502033333333,16.3,18.8,303,984.67,20.2,52,21.89,11.1,1010.56,321.4
2019-08-08 20:30,50.752305,-96.6895183333333,14.1,17.6,304,984.70,20.3,52,21.94,11.1,1010.59,321.4
2019-08-08 20:40,50.7339433333333,-96.7287266666667,12.6,16.7,309,984.74,20.5,52,21.98,11.1,1010.62,321.4
2019-08-08 20:50,50.7153533333333,-96.7676683333333,10.7,13.7,313,984.82,20.5,53,22.00,11.1,1010.69,321.4
2019-08-08 21:00,50.697055,-96.8066966666667,8.8,11.8,317,984.84,20.6,54,22.01,11.1,1010.70,240.1
2019-08-08 21:10,50.6788566666667,-96.8458016666667,7.0,10.1,310,984.85,20.5,54,22.05,11.1,1010.72,240.1
2019-08-08 21:20,50.660535,-96.8842766666667,16.7,23.2,288,984.54,21.2,48,22.14,11.0,1010.34,240.1
2019-08-08 21:30,50.6437166666667,-96.9238833333333,17.2,20.7,288,984.53,21.7,45,22.08,10.9,1010.31,240.1
2019-08-08 21:40,50.6310216666667,-96.9675416666667,14.8,19.0,289,984.69,21.6,44,21.89,11.0,1010.48,240.1
2019-08-08 21:50,50.6304416666667,-96.9807816666667,11.3,19.8,307,984.83,22.1,41,21.83,3.0,1010.60,240.1
2019-08-08 22:00,50.6304583333333,-96.9807783333333,8.2,16.1,279,985.00,22.6,39,21.91,0.0,1010.74,235.1
2019-08-08 22:10,50.630455,-96.9807733333333,10.4,18.8,299,984.86,22.8,38,21.88,0.0,1010.59,235.1
2019-08-08 22:20,50.6304533333333,-96.980775,7.5,12.5,306,984.90,22.7,39,21.96,0.0,1010.63,235.1
2019-08-08 22:30,50.6304516666667,-96.9807766666667,8.5,14.5,296,984.84,22.8,39,21.98,0.0,1010.56,235.1
2019-08-08 22:40,50.6304483333333,-96.980775,9.2,13.7,304,984.75,22.8,39,21.98,0.0,1010.46,235.1
2019-08-08 22:50,50.6304466666667,-96.980775,10.1,15.3,308,984.70,22.9,38,22.01,0.0,1010.40,235.1
2019-08-08 23:00,50.63044,-96.980815,8.0,12.6,310,984.85,22.6,39,22.01,0.0,1010.57,235.8
2019-08-08 23:10,50.6304516666667,-96.9807733333333,9.4,15.0,303,984.77,23.0,37,22.01,0.0,1010.44,235.8
2019-08-08 23:20,50.6304516666667,-96.9807766666667,9.8,16.5,302,984.69,23.1,36,22.01,0.0,1010.33,235.8
2019-08-08 23:30,50.6304533333333,-96.9807866666667,9.9,14.4,296,984.79,22.9,36,21.96,0.0,1010.45,235.8
2019-08-08 23:40,50.6304466666667,-96.9807866666667,8.8,14.9,289,984.78,23.1,36,21.96,0.0,1010.41,235.8
